Regional Weather Roundup
Issued by NWS Upton, NY

Current Version | Previous Version | Text Only | Print | Product List | Glossary Off
Versions: 1 2 3 4 5 6 7 8 9 10 11 12 13 14 15 16 17 18 19 20 21 22 23 24 25 26 27 28 29 30 31 32 33 34 35 36 37 38 39 40 41 42 43 44 45 46 47 48 49 50
000 ASUS41 KOKX 220805 RWROKX REGIONAL WEATHER ROUNDUP NATIONAL WEATHER SERVICE NEW YORK NY 400 AM EDT MON SEP 22 2014 NOTE: "FAIR" INDICATES FEW OR NO CLOUDS BELOW 12,000 FEET WITH NO SIGNIFICANT WEATHER AND/OR OBSTRUCTIONS TO VISIBILITY. NYZ071-072-176-178-NJZ106-104-220900- NEW YORK CITY METRO AREA CITY SKY/WX TMP DP RH WIND PRES REMARKS CENTRAL PARK PTCLDY 67 57 70 NW6 29.71R LAGUARDIA APRT PTCLDY 68 57 68 W12G17 29.67R KENNEDY INTL PTCLDY 67 57 70 NW7 29.69R NEWARK/LIBERTY PTCLDY 65 59 81 W7 29.69R BRNX BOT. GARD N/A 66 57 72 W13 29.70R TETERBORO PTCLDY 66 57 72 SW3 29.68R $$ NYZ177-179-078>081-220900- LONG ISLAND NEW YORK CITY SKY/WX TMP DP RH WIND PRES REMARKS FARMINGDALE CLEAR 66 59 78 NW6 29.67R ISLIP PTCLDY 66 60 81 NW8 29.64R SHIRLEY MOCLDY 67 61 81 NW7 29.65R WESTHAMPTON MOCLDY 68 63 84 W12 29.65R MONTAUK POINT N/A 69 67 93 W10 29.63R $$ NYZ052-065-067-220900- HUDSON VALLEY CITY SKY/WX TMP DP RH WIND PRES REMARKS WHITE PLAINS PTCLDY 63 56 78 NW7 29.67R NEWBURGH CLEAR 59 57 94 SW5 29.69R MONTGOMERY CLEAR 56 55 97 SW6 29.68R POUGHKEEPSIE PTCLDY 63 57 81 SW8 29.65R ALBANY PTCLDY 61 53 75 SW8 29.63R $$ NJZ001-105-106-008-010-013-015-019>022-104-220900- NEW JERSEY CITY SKY/WX TMP DP RH WIND PRES REMARKS NEWARK/LIBERTY PTCLDY 65 59 81 W7 29.69R TETERBORO PTCLDY 66 57 72 SW3 29.68R CALDWELL CLEAR 63 57 81 CALM 29.70R MORRISTOWN CLEAR 63 57 82 W5 29.70R SOMERVILLE CLEAR 62 58 86 W3 29.70R LINDEN FAIR 69 63 80 W5 29.71R SUSSEX PTCLDY 58 55 90 SW3 29.70R ANDOVER N/A 58 56 93 CALM 29.72R TRENTON CLEAR 66 54 65 NW7 29.72R MILLVILLE CLEAR 64 59 83 W7 29.75R ATLANTIC CITY CLEAR 66 61 84 W6 29.74R WRIGHTSTOWN CLEAR 65 60 82 NW6 29.71R TOMS RIVER CLEAR 66 61 82 W3 29.72R BELMAR CLEAR 64 57 77 W6 29.71R $$ PAZ047>061-062-071-220900- EASTERN PENNSYLVANIA CITY SKY/WX TMP DP RH WIND PRES REMARKS PHILADELPHIA PTCLDY 68 58 70 W12 29.75R ALLENTOWN CLEAR 62 51 67 W8 29.74R SCRANTON PTCLDY 58 53 84 SW7 29.74R $$ CTZ002-004>006-009-010-012-RIZ004-006-007-MAZ004-011-015-220900- SOUTHERN NEW ENGLAND IN CT CITY SKY/WX TMP DP RH WIND PRES REMARKS BRADLEY INTL MOCLDY 63 56 78 CALM 29.60S HARTFORD PTCLDY 60 59 96 MISG 29.61S DANBURY CLEAR 59 57 93 SW6 29.67R WTRBRY/OXFORD CLEAR 61 57 88 W3 29.66R BRIDGEPORT PTCLDY 65 60 84 W6 29.64R MERIDEN PTCLDY 61 60 97 CALM 29.62S NEW HAVEN PTCLDY 68 61 78 VRB5 29.64R CHESTER FAIR 64 64 100 NW5 29.64R GROTON MOCLDY 67 64 90 W6 29.60S WILLIMANTIC MOCLDY 64 58 80 MISG 29.61R IN RI CITY SKY/WX TMP DP RH WIND PRES REMARKS PROVIDENCE MOCLDY 68 65 90 W7 29.58S BLOCK ISLAND PTCLDY 66 64 94 W9 29.60F WESTERLY PTCLDY 68 66 93 W3 29.60F IN MA CITY SKY/WX TMP DP RH WIND PRES REMARKS BOSTON PTCLDY 69 65 86 W17 29.53S WORCESTER CLOUDY 62 58 86 W12 29.59S WESTFIELD MOCLDY 59 56 89 CALM 29.60S PROVINCETOWN MOCLDY 66 63 88 SW12 29.56R NANTUCKET FOG 67 66 97 W16G24 29.60R VSB 1/2 $$ ANZ330-335-338-340-345-350-353-355-220900- COASTAL MARINE OBSERVATIONS STATION/POSITION TIME SKY/WX TEMP WIND PRES VSBY WAVE AIR SEA DIR/SP/G HT/PER (UTC) (F) (DEG/KT/KT) (MB) (MI) (FT/S) NY HARB ENTRANCE 0800 71 70 310/ 16/ 17 1005.2 4/ 8 4S FIRE IS 0800 69 N/A 4/ 8 20S FIRE ISLAND 0800 70 69 320/ 14/ 17 1004.2 4/ 7 23SW MTP 0800 N/A 5/ 8 HUDSON CANYON 0800 71 70 250/ 12/ 14 1004.5 8/10 EXECUTION ROCKS 0800 68 70 300/ 10/ 12 N/A WESTERN LI SOUND 0800 69 280/ 10/ 14 N/A 0 CENTRAL LI SOUND 0700 68 70 280/ 16/ 19 N/A 2/ 3 EASTERN LI SOUND 0700 69 68 280/ 8/ 12 N/A ROBBINS REEF 0800 68 280/ 11/ 12 1004.0 $$ >>>>>>>>>>>>>>>>>>>>>>>>>>>> KEY <<<<<<<<<<<<<<<<<<<<<<<<<<< > < > SKY/WX - SKY CONDITION/PRESENT WEATHER < > TMP - TEMPERATURE IN FAHRENHEIT < > DP - DEWPOINT IN FAHRENHEIT < > RH - RELATIVE HUMIDITY IN PERCENT < > WIND - DIRECTION AND SPEED IN MPH < > PRES - MEAN SEA LEVEL PRESSURE IN INCHES OF HG < > WCI - WIND CHILL INDEX < > VSB - VISIBILITY IN MILES < > HX - HEAT INDEX < > TC - TEMPERATURE IN CELSIUS < > VRB - VARIABLE WIND DIRECTION < > < >>>>>>>>>>>>>>>>>>>>>>>>>>>> KEY <<<<<<<<<<<<<<<<<<<<<<<<<<<

USA.gov is the U.S. government's official web portal to all federal, state and local government web resources and services.